Вернуться в каталог

SCOUT A DEB

АктивенPO
NORAD 2778·DEBRIS·🇺🇸 United States

Запущен Apr 14, 1967 с Vandenberg Space Force Base

Loading…

Ближайшие Пролёты (ближайшие 24 часа)

TLE

СвежийSource: Space-Track

Эпоха: Sep 13, 2026, 14:48 UTC

1 02778U 67034D   26256.61704220  .00000104  00000-0  17667-3 0  9992
2 02778  89.8573  36.2403 0124747 106.2480  13.8683 13.35311682884956

Отслеживайте SCOUT A DEB в реальном времени с AllMySat

Download on the App Store